This is the latest recevied weather packets stored in our database for station/object K2CAT. If no packets are shown the sender has not sent any weather packets the latest 10 day(s).
| Time | Temp. | Humidity | Pressure | Rain* | Wind** | Luminosity | Snow |
|---|---|---|---|---|---|---|---|
| 1777334947 | 16.11° C | 54% | 1021.9 hPa | 0 mm | - | 0 W/m² | - |
| 1777334644 | 16.67° C | 54% | 1021.8 hPa | 0 mm | - | 0 W/m² | - |
| 1777334341 | 16.67° C | 52% | 1021.9 hPa | 0 mm | - | 1 W/m² | - |
| 1777334036 | 17.22° C | 52% | 1021.9 hPa | 0 mm | - | 1 W/m² | - |
| 1777333732 | 17.78° C | 49% | 1021.8 hPa | 0 mm | - | 2 W/m² | - |
| 1777333428 | 17.78° C | 49% | 1021.7 hPa | 0 mm | - | 4 W/m² | - |
| 1777333127 | 18.33° C | 48% | 1021.6 hPa | 0 mm | - | 6 W/m² | - |
| 1777332824 | 18.89° C | 44% | 1021.6 hPa | 0 mm | - | 8 W/m² | - |
| 1777332521 | 18.89° C | 46% | 1021.4 hPa | 0 mm | - | 9 W/m² | - |
| 1777332218 | 19.44° C | 42% | 1021.6 hPa | 0 mm | - | 11 W/m² | - |
| 1777331915 | 19.44° C | 41% | 1021.6 hPa | 0 mm | - | 13 W/m² | - |
| 1777331612 | 20° C | 41% | 1021.5 hPa | 0 mm | - | 15 W/m² | - |
| 1777331309 | 20° C | 38% | 1021.2 hPa | 0 mm | - | 17 W/m² | - |
| 1777331007 | 20° C | 42% | 1021.6 hPa | 0 mm | - | 20 W/m² | - |
| 1777330703 | 20.56° C | 39% | 1021.4 hPa | 0 mm | - | 21 W/m² | - |
| 1777330401 | 21.11° C | 38% | 1021.5 hPa | 0 mm | - | 23 W/m² | - |
| 1777330098 | 21.67° C | 38% | 1021.5 hPa | 0 mm | - | 26 W/m² | - |
| 1777329797 | 22.22° C | 37% | 1021.6 hPa | 0 mm | - | 28 W/m² | - |
| 1777329495 | 22.22° C | 36% | 1021.5 hPa | 0 mm | - | 29 W/m² | - |
| 1777329192 | 22.78° C | 35% | 1021.6 hPa | 0 mm | - | 31 W/m² | - |
| 1777328889 | 22.78° C | 34% | 1021.5 hPa | 0 mm | - | 32 W/m² | - |
| 1777328588 | 22.78° C | 33% | 1021.5 hPa | 0 mm | - | 33 W/m² | - |
| 1777328285 | 23.33° C | 29% | 1021.6 hPa | 0 mm | - | 34 W/m² | - |
| 1777327983 | 23.89° C | 31% | 1021.7 hPa | 0 mm | - | 51 W/m² | - |
| 1777327682 | 23.89° C | 28% | 1021.7 hPa | 0 mm | - | 136 W/m² | - |
* Rain latest hour (hover to see other rain measurements)
** Current wind speed in m/s (hover to see current wind gust speed)